When you browse on this site, cookies collect data to enhance your experience and personalize the content and advertising you see.
Visit our Privacy Policy to learn more. By continuing to use the site, you agree to this use of cookies and data.
  • en France
  • Liste des pays
  • À 7 jours
  • Température de l'eau
  • Carte météo
  • Widgets météo
  • user-avatar
    Se connecter

    Météo par heure à Paris

    Ce jour, 25 Mai, Lundi

    Heure Température Précipitation Vent Pression Humidité
    00:00 +13°C° 0 mm 2 m/s 770 mmHg 81%
    01:00 +13°C° 0 mm 2 m/s 770 mmHg 81%
    02:00 +12°C° 0 mm 1 m/s 770 mmHg 82%
    03:00 +12°C° 0 mm 1 m/s 770 mmHg 82%
    04:00 +13°C° 0 mm 1 m/s 770 mmHg 81%
    05:00 +13°C° 0 mm 2 m/s 770 mmHg 79%
    06:00 +14°C° 0 mm 2 m/s 770 mmHg 77%
    07:00 +16°C° 0 mm 2 m/s 770 mmHg 71%
    08:00 +18°C° 0 mm 2 m/s 771 mmHg 65%
    09:00 +19°C° 0 mm 3 m/s 771 mmHg 59%
    10:00 +20°C° 0 mm 3 m/s 770 mmHg 56%
    11:00 +21°C° 0 mm 3 m/s 770 mmHg 52%
    12:00 +22°C° 0 mm 3 m/s 770 mmHg 49%
    13:00 +24°C° 0 mm 3 m/s 770 mmHg 48%
    14:00 +23°C° 0 mm 4 m/s 770 mmHg 47%
    15:00 +23°C° 0 mm 4 m/s 770 mmHg 47%
    16:00 +23°C° 0 mm 4 m/s 770 mmHg 51%
    17:00 +22°C° 0 mm 4 m/s 769 mmHg 55%
    18:00 +21°C° 0 mm 4 m/s 769 mmHg 60%
    19:00 +20°C° 0 mm 3 m/s 770 mmHg 63%
    20:00 +19°C° 0 mm 3 m/s 770 mmHg 66%
    21:00 +17°C° 0 mm 3 m/s 770 mmHg 69%
    22:00 +17°C° 0 mm 3 m/s 770 mmHg 72%
    23:00 +16°C° 0 mm 3 m/s 770 mmHg 74%

    Demain, 26 Mai, Mardi

    Heure Température Précipitation Vent Pression Humidité
    00:00 +14°C° 0 mm 3 m/s 770 mmHg 76%
    01:00 +14°C° 0 mm 3 m/s 770 mmHg 77%
    02:00 +14°C° 0 mm 2 m/s 770 mmHg 77%
    03:00 +13°C° 0 mm 2 m/s 770 mmHg 78%
    04:00 +14°C° 0 mm 2 m/s 770 mmHg 77%
    05:00 +14°C° 0 mm 2 m/s 771 mmHg 76%
    06:00 +15°C° 0 mm 2 m/s 771 mmHg 75%
    07:00 +16°C° 0 mm 3 m/s 771 mmHg 69%
    08:00 +18°C° 0 mm 3 m/s 771 mmHg 63%
    09:00 +20°C° 0 mm 3 m/s 771 mmHg 57%
    10:00 +21°C° 0 mm 4 m/s 771 mmHg 54%
    11:00 +22°C° 0 mm 4 m/s 771 mmHg 50%
    12:00 +23°C° 0 mm 4 m/s 771 mmHg 47%
    13:00 +23°C° 0 mm 4 m/s 771 mmHg 47%
    14:00 +23°C° 0 mm 4 m/s 770 mmHg 47%
    15:00 +25°C° 0 mm 4 m/s 770 mmHg 47%
    16:00 +23°C° 0 mm 4 m/s 770 mmHg 51%
    17:00 +22°C° 0 mm 4 m/s 770 mmHg 55%
    18:00 +22°C° 0 mm 4 m/s 769 mmHg 59%
    19:00 +20°C° 0 mm 3 m/s 770 mmHg 62%
    20:00 +19°C° 0 mm 3 m/s 770 mmHg 66%
    21:00 +18°C° 0 mm 3 m/s 770 mmHg 69%
    22:00 +17°C° 0 mm 3 m/s 770 mmHg 72%
    23:00 +16°C° 0 mm 3 m/s 770 mmHg 74%

    Après-demain, 27 Mai, Mercredi

    Heure Température Précipitation Vent Pression Humidité
    00:00 +14°C° 0 mm 3 m/s 770 mmHg 76%
    01:00 +14°C° 0 mm 3 m/s 770 mmHg 77%
    02:00 +13°C° 0 mm 3 m/s 770 mmHg 79%
    03:00 +13°C° 0 mm 3 m/s 770 mmHg 80%
    04:00 +13°C° 0 mm 3 m/s 770 mmHg 78%
    05:00 +14°C° 0 mm 3 m/s 770 mmHg 75%
    06:00 +14°C° 0 mm 3 m/s 769 mmHg 73%
    07:00 +17°C° 0 mm 3 m/s 770 mmHg 67%
    08:00 +19°C° 0 mm 3 m/s 770 mmHg 61%
    09:00 +21°C° 0 mm 3 m/s 770 mmHg 55%
    10:00 +22°C° 0 mm 3 m/s 770 mmHg 52%
    11:00 +24°C° 0 mm 3 m/s 769 mmHg 49%
    12:00 +25°C° 0 mm 4 m/s 769 mmHg 47%
    13:00 +25°C° 0 mm 4 m/s 769 mmHg 48%
    14:00 +25°C° 0 mm 4 m/s 769 mmHg 49%
    15:00 +25°C° 0 mm 4 m/s 768 mmHg 50%
    16:00 +23°C° 0 mm 4 m/s 768 mmHg 54%
    17:00 +23°C° 0 mm 4 m/s 768 mmHg 58%
    18:00 +22°C° 0 mm 3 m/s 768 mmHg 62%
    19:00 +21°C° 0 mm 4 m/s 768 mmHg 66%
    20:00 +19°C° 0 mm 4 m/s 768 mmHg 70%
    21:00 +18°C° 0 mm 4 m/s 768 mmHg 75%
    22:00 +17°C° 0 mm 4 m/s 768 mmHg 74%
    23:00 +15°C° 0 mm 4 m/s 768 mmHg 74%

    28 Mai, Jeudi

    Heure Température Précipitation Vent Pression Humidité
    00:00 +14°C° 0 mm 4 m/s 768 mmHg 74%
    01:00 +14°C° 0 mm 3 m/s 768 mmHg 76%
    02:00 +13°C° 0 mm 3 m/s 767 mmHg 79%
    03:00 +12°C° 0 mm 3 m/s 767 mmHg 81%
    04:00 +13°C° 0 mm 3 m/s 767 mmHg 80%
    05:00 +13°C° 0 mm 3 m/s 767 mmHg 79%
    06:00 +14°C° 0 mm 3 m/s 767 mmHg 78%
    07:00 +15°C° 0 mm 4 m/s 767 mmHg 74%
    08:00 +18°C° 0 mm 4 m/s 767 mmHg 69%
    09:00 +19°C° 0 mm 4 m/s 767 mmHg 64%
    10:00 +20°C° 0 mm 4 m/s 766 mmHg 60%
    11:00 +21°C° 0 mm 4 m/s 766 mmHg 56%
    12:00 +22°C° 0 mm 5 m/s 766 mmHg 51%
    13:00 +22°C° 0 mm 5 m/s 765 mmHg 48%
    14:00 +22°C° 0 mm 5 m/s 765 mmHg 45%
    15:00 +22°C° 0 mm 5 m/s 765 mmHg 42%
    16:00 +22°C° 0 mm 4 m/s 764 mmHg 46%
    17:00 +21°C° 0 mm 4 m/s 764 mmHg 50%
    18:00 +20°C° 0 mm 4 m/s 764 mmHg 54%
    19:00 +19°C° 0 mm 4 m/s 764 mmHg 56%
    20:00 +17°C° 0 mm 4 m/s 764 mmHg 58%
    21:00 +15°C° 0 mm 4 m/s 764 mmHg 60%
    22:00 +14°C° 0 mm 4 m/s 764 mmHg 61%
    23:00 +13°C° 0 mm 4 m/s 764 mmHg 62%

    29 Mai, Vendredi

    Heure Température Précipitation Vent Pression Humidité
    00:00 +13°C° 0 mm 3 m/s 764 mmHg 63%
    01:00 +12°C° 0 mm 3 m/s 763 mmHg 65%
    02:00 +11°C° 0 mm 3 m/s 763 mmHg 66%
    03:00 +11°C° 0 mm 3 m/s 763 mmHg 68%
    04:00 +11°C° 0 mm 3 m/s 763 mmHg 67%
    05:00 +12°C° 0 mm 3 m/s 763 mmHg 67%
    06:00 +12°C° 0 mm 3 m/s 762 mmHg 67%
    07:00 +14°C° 0 mm 4 m/s 762 mmHg 62%
    08:00 +15°C° 0 mm 4 m/s 762 mmHg 56%
    09:00 +18°C° 0 mm 4 m/s 762 mmHg 51%
    10:00 +19°C° 0 mm 4 m/s 762 mmHg 49%
    11:00 +20°C° 0 mm 4 m/s 761 mmHg 46%
    12:00 +21°C° 0 mm 4 m/s 761 mmHg 44%
    13:00 +21°C° 0 mm 4 m/s 761 mmHg 44%
    14:00 +22°C° 0 mm 4 m/s 760 mmHg 45%
    15:00 +22°C° 0 mm 4 m/s 760 mmHg 45%
    16:00 +21°C° 0 mm 4 m/s 760 mmHg 48%
    17:00 +20°C° 0 mm 4 m/s 760 mmHg 52%
    18:00 +19°C° 0 mm 4 m/s 760 mmHg 55%
    19:00 +18°C° 0 mm 4 m/s 760 mmHg 58%
    20:00 +17°C° 0 mm 3 m/s 760 mmHg 61%
    21:00 +14°C° 0 mm 3 m/s 760 mmHg 63%
    22:00 +14°C° 0 mm 3 m/s 760 mmHg 66%
    23:00 +13°C° 0 mm 3 m/s 760 mmHg 69%

    30 Mai, Samedi

    Heure Température Précipitation Vent Pression Humidité
    00:00 +13°C° 0 mm 3 m/s 760 mmHg 72%
    01:00 +12°C° 0 mm 3 m/s 760 mmHg 71%
    02:00 +12°C° 0 mm 3 m/s 760 mmHg 71%
    03:00 +11°C° 0 mm 3 m/s 760 mmHg 70%
    04:00 +12°C° 0 mm 3 m/s 760 mmHg 67%
    05:00 +12°C° 0 mm 3 m/s 761 mmHg 65%
    06:00 +13°C° 0 mm 4 m/s 761 mmHg 62%
    07:00 +14°C° 0 mm 4 m/s 761 mmHg 57%
    08:00 +15°C° 0 mm 4 m/s 761 mmHg 52%
    09:00 +17°C° 0 mm 5 m/s 761 mmHg 47%
    10:00 +19°C° 0 mm 5 m/s 761 mmHg 45%
    11:00 +20°C° 0 mm 5 m/s 761 mmHg 43%
    12:00 +20°C° 0 mm 5 m/s 761 mmHg 41%
    13:00 +21°C° 0 mm 5 m/s 761 mmHg 42%
    14:00 +21°C° 0 mm 4 m/s 760 mmHg 42%
    15:00 +21°C° 0 mm 4 m/s 760 mmHg 42%
    16:00 +21°C° 0 mm 4 m/s 760 mmHg 46%
    17:00 +20°C° 0 mm 4 m/s 760 mmHg 49%
    18:00 +20°C° 0 mm 3 m/s 760 mmHg 53%
    19:00 +18°C° 0 mm 3 m/s 760 mmHg 56%
    20:00 +17°C° 0 mm 2 m/s 760 mmHg 58%
    21:00 +16°C° 0 mm 2 m/s 761 mmHg 61%
    22:00 +15°C° 0 mm 2 m/s 761 mmHg 65%
    23:00 +14°C° 0 mm 2 m/s 760 mmHg 69%
    Voir plus